Tracking 29799 objects as of 11-Oct-2024
HD Live streaming from Space Station
objects crossing your sky now

STARLINK-3286

Track STARLINK-3286 now!
10-day predictions
STARLINK-3286 is classified as:


NORAD ID: 50171
Int'l Code: 2021-125R
Perigee: 545.7 km
Apogee: 548.1 km
Inclination: 53.2 °
Period: 95.4 minutes
Semi major axis: 6917 km
RCS: Unknown
Launch date: December 18, 2021
Source: United States (US)
Launch site: AIR FORCE WESTERN TEST RANGE (AFWTR)
Your satellite tracking list
Your tracking list is empty




NASA's NSSDC Master Catalog

Two Line Element Set (TLE):
1 50171U 21125R   24284.56841977  .00003602  00000-0  24434-3 0  9993
2 50171  53.2181  41.5905 0001693 112.8517 247.2654 15.08832609158347
Source of the keplerian elements: AFSPC